GASNE EGHR-EGKK

Flight info

Callsign GASNE
Flight time N/A
Altitude 7000
Route GWC DCT HOLLY/N0280F080 DCT WILLO
Aircraft AT46/M-SDFGIRY/S

Departure

Time 2026-05-04 17:20
Airport Goodwood Aerodrome (EGHR)

Arrival

Time N/A
Airport London Gatwick Airport (EGKK)
Time Latitude Longitude Altitude Speed Heading
2026-05-04 17:18 50.85636 -0.75531 98 ft 0 kts 319°
2026-05-04 17:19 50.85686 -0.75600 99 ft 35 kts 318°
2026-05-04 17:19 50.86694 -0.77028 386 ft 133 kts 315°
2026-05-04 17:20 50.88195 -0.79487 1248 ft 170 kts 310°
2026-05-04 17:20 50.88899 -0.83160 1996 ft 201 kts 245°
2026-05-04 17:20 50.87793 -0.84482 2343 ft 211 kts 192°
2026-05-04 17:21 50.85368 -0.82455 3333 ft 213 kts 111°
2026-05-04 17:21 50.85367 -0.77855 4279 ft 213 kts 82°
2026-05-04 17:22 50.85557 -0.75520 4692 ft 215 kts 82°
2026-05-04 17:22 50.85741 -0.73160 5110 ft 216 kts 83°
2026-05-04 17:23 50.86127 -0.66040 6403 ft 216 kts 85°
2026-05-04 17:23 50.86239 -0.63689 6812 ft 216 kts 85°
2026-05-04 17:23 50.86418 -0.59867 6943 ft 236 kts 86°
2026-05-04 17:24 50.86533 -0.57244 6976 ft 242 kts 86°
2026-05-04 17:24 50.86876 -0.49114 6989 ft 249 kts 86°
2026-05-04 17:25 50.87000 -0.46363 6991 ft 251 kts 86°
2026-05-04 17:25 50.88587 -0.41771 6992 ft 251 kts 28°
2026-05-04 17:26 50.92002 -0.41470 6995 ft 249 kts 353°
2026-05-04 17:26 50.97281 -0.42664 6459 ft 262 kts 351°
2026-05-04 17:27 51.00850 -0.43778 5953 ft 256 kts 347°
2026-05-04 17:27 51.04215 -0.45085 5427 ft 242 kts 346°
2026-05-04 17:28 51.07403 -0.46389 4928 ft 231 kts 346°
2026-05-04 17:29 51.11095 -0.50711 4202 ft 228 kts 311°
2026-05-04 17:29 51.13387 -0.56846 4029 ft 208 kts 279°
2026-05-04 17:30 51.10443 -0.60411 4022 ft 222 kts 158°
2026-05-04 17:31 51.08848 -0.56497 4018 ft 228 kts 85°
2026-05-04 17:31 51.10668 -0.49638 3894 ft 231 kts 75°
2026-05-04 17:32 51.11283 -0.44584 3268 ft 232 kts 75°
2026-05-04 17:33 51.12278 -0.37474 2356 ft 205 kts 76°
2026-05-04 17:33 51.12590 -0.35288 2073 ft 198 kts 76°
2026-05-04 17:34 51.13478 -0.28758 1272 ft 202 kts 77°
2026-05-04 17:34 51.13671 -0.27351 1085 ft 188 kts 76°
2026-05-04 17:35 51.14358 -0.22361 417 ft 122 kts 76°
2026-05-04 17:35 51.14707 -0.19861 205 ft 111 kts 77°
2026-05-04 17:35 51.14952 -0.18168 588 ft 122 kts 74°
2026-05-04 17:36 51.15123 -0.17173 591 ft 151 kts 72°
2026-05-04 17:36 51.15418 -0.15545 1113 ft 158 kts 74°
2026-05-04 17:36 51.15704 -0.13775 1536 ft 169 kts 75°
2026-05-04 17:36 51.15957 -0.11909 1968 ft 179 kts 77°
2026-05-04 17:37 51.16201 -0.09914 2407 ft 187 kts 78°
2026-05-04 17:37 51.16437 -0.07842 2839 ft 195 kts 78°
2026-05-04 17:37 51.16684 -0.05614 2925 ft 211 kts 79°
2026-05-04 17:37 51.16942 -0.03247 2969 ft 222 kts 79°
2026-05-04 17:38 51.17195 -0.00784 2988 ft 227 kts 83°
2026-05-04 17:38 51.16832 0.01681 2995 ft 237 kts 120°
2026-05-04 17:38 51.15577 0.03400 2999 ft 245 kts 155°
2026-05-04 17:38 51.13904 0.03939 2991 ft 246 kts 172°
2026-05-04 17:39 51.10520 0.04398 2991 ft 241 kts 175°
2026-05-04 17:39 51.08877 0.04565 2987 ft 239 kts 175°
2026-05-04 17:39 51.07257 0.04370 2988 ft 234 kts 200°
2026-05-04 17:40 51.05992 0.02795 2986 ft 233 kts 237°
2026-05-04 17:40 51.05440 0.00415 2991 ft 230 kts 257°
2026-05-04 17:40 51.05079 -0.02075 3003 ft 233 kts 259°
2026-05-04 17:40 51.04749 -0.04620 2993 ft 235 kts 260°
2026-05-04 17:41 51.04437 -0.07168 3009 ft 236 kts 261°
2026-05-04 17:41 51.04129 -0.09738 3018 ft 237 kts 261°
2026-05-04 17:41 51.03829 -0.12297 3025 ft 239 kts 261°
2026-05-04 17:41 51.03531 -0.14901 2990 ft 239 kts 261°
2026-05-04 17:42 51.03236 -0.17487 2969 ft 237 kts 261°
2026-05-04 17:42 51.02943 -0.20047 2973 ft 234 kts 261°
2026-05-04 17:42 51.02651 -0.22582 2978 ft 232 kts 261°
2026-05-04 17:42 51.02360 -0.25094 2986 ft 231 kts 261°
2026-05-04 17:43 51.02070 -0.27595 2990 ft 230 kts 261°
2026-05-04 17:43 51.01781 -0.30090 2992 ft 230 kts 261°
2026-05-04 17:43 51.01490 -0.32589 3000 ft 230 kts 261°
2026-05-04 17:43 51.01198 -0.35107 3034 ft 233 kts 261°
2026-05-04 17:44 51.00902 -0.37656 3008 ft 235 kts 261°
2026-05-04 17:44 51.00607 -0.40213 3017 ft 236 kts 261°
2026-05-04 17:44 51.00329 -0.42787 3013 ft 234 kts 265°
2026-05-04 17:44 51.00667 -0.45249 2972 ft 230 kts 303°
2026-05-04 17:45 51.01847 -0.46857 2972 ft 224 kts 338°
2026-05-04 17:45 51.03286 -0.47681 2987 ft 222 kts 343°
2026-05-04 17:45 51.04760 -0.48426 2993 ft 222 kts 344°
2026-05-04 17:45 51.06241 -0.49128 2995 ft 222 kts 345°
2026-05-04 17:46 51.07737 -0.49570 2993 ft 216 kts
2026-05-04 17:46 51.09071 -0.48581 3006 ft 215 kts 43°
2026-05-04 17:46 51.10085 -0.46858 2998 ft 211 kts 49°
2026-05-04 17:46 51.11023 -0.45098 2996 ft 204 kts 54°
2026-05-04 17:47 51.11551 -0.43043 2996 ft 200 kts 73°
2026-05-04 17:47 51.11859 -0.40849 2811 ft 205 kts 79°
2026-05-04 17:47 51.12099 -0.38643 2536 ft 195 kts 77°
2026-05-04 17:47 51.12398 -0.36617 2273 ft 182 kts 75°
2026-05-04 17:48 51.12671 -0.34724 2034 ft 169 kts 77°
2026-05-04 17:48 51.12905 -0.32956 1804 ft 159 kts 77°
2026-05-04 17:48 51.13058 -0.31825 1663 ft 157 kts 76°
2026-05-04 17:48 51.13370 -0.29575 1375 ft 155 kts 76°
2026-05-04 17:49 51.13595 -0.27928 1165 ft 149 kts 77°
2026-05-04 17:49 51.13814 -0.26351 965 ft 147 kts 76°
2026-05-04 17:49 51.14039 -0.24763 763 ft 146 kts 76°
2026-05-04 17:49 51.14254 -0.23183 563 ft 139 kts 76°
2026-05-04 17:50 51.14440 -0.21791 370 ft 119 kts 76°
2026-05-04 17:50 51.14608 -0.20548 218 ft 113 kts 76°
2026-05-04 17:50 51.14780 -0.19316 213 ft 123 kts 77°
2026-05-04 17:50 51.14953 -0.18057 658 ft 113 kts 75°
2026-05-04 17:51 51.15156 -0.16747 930 ft 132 kts 75°
2026-05-04 17:51 51.15372 -0.15185 1204 ft 156 kts 78°
2026-05-04 17:51 51.15589 -0.13377 1453 ft 176 kts 77°
2026-05-04 17:51 51.15831 -0.11380 1790 ft 191 kts 78°
2026-05-04 17:52 51.16083 -0.09243 2185 ft 200 kts 78°
2026-05-04 17:52 51.16342 -0.07025 2572 ft 207 kts 78°
2026-05-04 17:52 51.16601 -0.04762 2864 ft 216 kts 78°
2026-05-04 17:52 51.16847 -0.02349 2941 ft 219 kts 85°
2026-05-04 17:53 51.16425 -0.00041 2967 ft 228 kts 123°
2026-05-04 17:53 51.15140 0.01451 2980 ft 234 kts 160°
2026-05-04 17:53 51.13554 0.02014 2992 ft 234 kts 168°
2026-05-04 17:53 51.11941 0.02459 2997 ft 235 kts 169°
2026-05-04 17:54 51.10325 0.02861 2987 ft 236 kts 170°
2026-05-04 17:54 51.08698 0.03234 2994 ft 233 kts 172°
2026-05-04 17:54 51.07128 0.02811 2996 ft 233 kts 208°
2026-05-04 17:54 51.06009 0.00998 2986 ft 232 kts 243°
2026-05-04 17:55 51.05349 -0.01336 2998 ft 232 kts 248°
2026-05-04 17:55 51.04745 -0.03723 2997 ft 234 kts 250°
2026-05-04 17:55 51.04158 -0.06158 2994 ft 236 kts 250°
2026-05-04 17:55 51.03586 -0.08575 3002 ft 238 kts 251°
2026-05-04 17:56 51.03012 -0.11038 3015 ft 239 kts 251°
2026-05-04 17:56 51.02445 -0.13530 3060 ft 240 kts 251°
2026-05-04 17:56 51.01873 -0.16026 3024 ft 240 kts 251°
2026-05-04 17:56 51.01304 -0.18505 3002 ft 237 kts 251°
2026-05-04 17:57 51.01002 -0.21014 2994 ft 229 kts 269°
2026-05-04 17:57 51.00943 -0.23544 2994 ft 229 kts 270°
2026-05-04 17:57 51.00902 -0.26068 2998 ft 229 kts 270°
2026-05-04 17:57 51.00872 -0.28601 2997 ft 230 kts 271°
2026-05-04 17:58 51.00846 -0.31148 3004 ft 231 kts 271°
2026-05-04 17:58 51.00827 -0.33700 3016 ft 232 kts 271°
2026-05-04 17:58 51.00807 -0.36282 3013 ft 234 kts 271°
2026-05-04 17:58 51.00789 -0.38876 3012 ft 235 kts 271°
2026-05-04 17:59 51.00772 -0.41478 3016 ft 237 kts 270°
2026-05-04 17:59 51.00756 -0.44112 2992 ft 239 kts 271°
2026-05-04 17:59 51.00717 -0.49351 2981 ft 235 kts 271°
2026-05-04 18:00 51.00717 -0.51931 2986 ft 230 kts 277°
2026-05-04 18:00 51.01327 -0.54188 2992 ft 224 kts 315°
2026-05-04 18:00 51.02641 -0.55332 2999 ft 219 kts 352°
2026-05-04 18:00 51.04112 -0.54940 3004 ft 217 kts 30°
2026-05-04 18:01 51.05229 -0.53339 3007 ft 217 kts 47°
2026-05-04 18:01 51.06237 -0.51539 3001 ft 219 kts 49°
2026-05-04 18:01 51.07225 -0.49681 3000 ft 220 kts 50°
2026-05-04 18:02 51.09170 -0.45901 2997 ft 220 kts 51°
2026-05-04 18:02 51.10136 -0.44006 2993 ft 221 kts 51°
2026-05-04 18:02 51.11101 -0.42096 2978 ft 222 kts 51°
2026-05-04 18:02 51.11931 -0.40129 2702 ft 205 kts 70°
2026-05-04 18:03 51.12176 -0.38038 2445 ft 189 kts 76°
2026-05-04 18:03 51.12503 -0.36042 2182 ft 181 kts 74°
2026-05-04 18:03 51.12761 -0.34137 1946 ft 173 kts 77°
2026-05-04 18:03 51.12990 -0.32309 1725 ft 164 kts 77°
2026-05-04 18:04 51.13231 -0.30549 1494 ft 158 kts 76°
2026-05-04 18:04 51.13470 -0.28865 1292 ft 154 kts 76°
2026-05-04 18:04 51.13911 -0.25653 890 ft 136 kts 76°
2026-05-04 18:05 51.14106 -0.24298 720 ft 119 kts 76°
2026-05-04 18:05 51.14284 -0.23002 562 ft 120 kts 77°
2026-05-04 18:05 51.14463 -0.21679 364 ft 123 kts 77°
2026-05-04 18:05 51.14635 -0.20366 209 ft 114 kts 77°
2026-05-04 18:06 51.14983 -0.17994 557 ft 121 kts 76°
2026-05-04 18:06 51.15173 -0.16538 760 ft 148 kts 79°
2026-05-04 18:06 51.15395 -0.14824 1066 ft 167 kts 77°
2026-05-04 18:07 51.15642 -0.12932 1444 ft 180 kts 77°
2026-05-04 18:07 51.15897 -0.10920 1930 ft 187 kts 77°
2026-05-04 18:07 51.16145 -0.08865 2454 ft 190 kts 78°
2026-05-04 18:07 51.16397 -0.06772 2886 ft 198 kts 78°
2026-05-04 18:08 51.16659 -0.04511 2949 ft 214 kts 78°
2026-05-04 18:08 51.16932 -0.02117 2974 ft 225 kts 78°
2026-05-04 18:08 51.17206 0.00301 2997 ft 226 kts 78°
2026-05-04 18:08 51.17495 0.02829 3008 ft 228 kts 78°
2026-05-04 18:09 51.18004 0.07822 3011 ft 227 kts 90°
2026-05-04 18:09 51.16078 0.11560 3007 ft 235 kts 156°
2026-05-04 18:10 51.14563 0.12454 2991 ft 235 kts 159°
2026-05-04 18:10 51.13016 0.13303 2998 ft 235 kts 160°
2026-05-04 18:10 51.11457 0.14115 3004 ft 236 kts 160°
2026-05-04 18:10 51.09888 0.14915 3001 ft 237 kts 161°
2026-05-04 18:11 51.08315 0.15704 3000 ft 237 kts 161°
2026-05-04 18:11 51.06737 0.16493 3000 ft 237 kts 161°
2026-05-04 18:11 51.05162 0.17286 3003 ft 238 kts 161°
2026-05-04 18:11 51.03574 0.18083 2995 ft 238 kts 161°
2026-05-04 18:12 51.01994 0.18879 2994 ft 238 kts 161°
2026-05-04 18:12 51.00418 0.19671 3002 ft 238 kts 161°
2026-05-04 18:12 50.98844 0.20332 2993 ft 235 kts 174°
2026-05-04 18:12 50.97269 0.19711 2998 ft 237 kts 212°
2026-05-04 18:13 50.96217 0.17762 2996 ft 236 kts 248°
2026-05-04 18:13 50.95869 0.15244 2999 ft 233 kts 263°
2026-05-04 18:13 50.95468 0.10113 2997 ft 236 kts 265°
2026-05-04 18:14 50.95302 0.07521 3000 ft 237 kts 265°
2026-05-04 18:14 50.95143 0.04907 2999 ft 237 kts 266°
2026-05-04 18:14 50.94986 0.02300 2997 ft 238 kts 266°
2026-05-04 18:15 50.94687 -0.02894 2995 ft 238 kts 266°
2026-05-04 18:15 50.94385 -0.08121 2994 ft 237 kts 266°
2026-05-04 18:15 50.94234 -0.10721 2995 ft 237 kts 266°
2026-05-04 18:16 50.94135 -0.12443 2996 ft 237 kts 266°
2026-05-04 18:16 50.93982 -0.15046 2994 ft 236 kts 266°
2026-05-04 18:16 50.93830 -0.17640 2997 ft 237 kts 266°
2026-05-04 18:17 50.93523 -0.22849 2997 ft 237 kts 266°
2026-05-04 18:17 50.93371 -0.25453 2995 ft 237 kts 266°
2026-05-04 18:17 50.93068 -0.30660 2996 ft 236 kts 266°
2026-05-04 18:18 50.92917 -0.33250 2992 ft 235 kts 266°
2026-05-04 18:18 50.92795 -0.35304 2932 ft 124 kts 265°
2026-05-04 18:18 50.92631 -0.36997 2690 ft 180 kts 262°
2026-05-04 18:18 50.92778 -0.38959 2973 ft 195 kts 291°